Location: Newark
(35.5300°N, 14.3000°E)
Time: 18:02:19
(UTC+00:00)

SR - All Passes

Search period start: 22 November 2019 00:00
Search period end: 02 December 2019 00:00
Orbit: 573 x 882 km, 66.7° (Epoch: 21 November)

Date Brightness Start Highest point End Pass type
(mag) Time Alt. Az. Time Alt. Az. Time Alt. Az.
22 Nov - 11:20:48 10° SE 11:23:57 16° ESE 11:27:14 10° ENE daylight
22 Nov - 13:00:17 10° SW 13:05:23 57° WNW 13:10:58 10° NNE daylight
22 Nov - 21:44:14 10° NNW 21:50:04 57° ENE 21:55:35 10° SE night (unlit)
22 Nov - 23:27:44 10° WNW 23:31:36 19° WSW 23:35:21 10° SW night (unlit)
23 Nov - 12:10:36 10° SSW 12:15:43 71° ESE 12:21:20 10° NNE daylight
23 Nov - 13:54:57 10° W 13:58:28 17° NW 14:02:08 10° N daylight
23 Nov - 20:54:58 10° N 21:00:09 30° NE 21:05:07 10° ESE night (unlit)
23 Nov - 22:36:57 10° NW 22:42:19 38° WSW 22:47:24 10° S night (unlit)
24 Nov - 11:21:42 10° S 11:26:17 33° ESE 11:31:12 10° NE daylight
24 Nov - 13:03:39 10° WSW 13:08:20 31° NW 13:13:21 10° N daylight
24 Nov - 20:06:14 10° N 20:10:01 17° NE 20:13:42 10° E night (unlit)
24 Nov - 21:46:56 10° NNW 21:52:50 78° WSW 21:58:22 10° SSE night (unlit)
25 Nov - 10:34:06 10° SE 10:37:03 15° ESE 10:40:08 10° ENE daylight
25 Nov - 12:13:16 10° SW 12:18:26 61° WNW 12:24:04 10° NNE daylight
25 Nov - 20:57:20 10° NNW 21:03:08 54° ENE 21:08:36 10° SE night (unlit)
25 Nov - 22:40:40 10° WNW 22:44:43 20° WSW 22:48:36 10° SSW night (unlit)
26 Nov - 11:23:40 10° SSW 11:28:47 66° ESE 11:34:24 10° NNE daylight
26 Nov - 13:07:47 10° W 13:11:28 18° NW 13:15:21 10° N daylight
26 Nov - 20:08:07 10° N 20:13:12 29° NE 20:18:04 10° ESE night (unlit)
26 Nov - 21:49:58 10° NW 21:55:25 40° WSW 22:00:33 10° S night (unlit)
27 Nov - 10:34:51 10° SSE 10:39:23 31° ESE 10:44:14 10° NE daylight
27 Nov - 12:16:36 10° WSW 12:21:22 33° NW 12:26:30 10° N daylight
27 Nov - 19:19:26 10° N 19:23:02 16° NE 19:26:32 10° E night (unlit)
27 Nov - 21:00:01 10° NNW 21:05:55 83° WSW 21:11:27 10° SSE night (unlit)
28 Nov - 09:47:25 10° SE 09:50:10 14° ESE 09:53:00 10° ENE daylight
28 Nov - 11:26:17 10° SW 11:31:30 65° WNW 11:37:11 10° NNE daylight
28 Nov - 13:13:40 10° NW 13:14:49 11° NW 13:15:58 10° NNW daylight
28 Nov - 20:10:27 10° NNW 20:16:11 51° ENE 20:21:36 10° SE night (unlit)
28 Nov - 21:53:37 10° WNW 21:57:49 21° WSW 22:01:51 10° SSW night (unlit)
29 Nov - 10:36:44 10° SSW 10:41:52 62° ESE 10:47:28 10° NE daylight
29 Nov - 12:20:38 10° W 12:24:29 19° NW 12:28:33 10° N daylight
29 Nov - 19:21:16 10° N 19:26:14 27° NE 19:30:59 10° ESE visible
29 Nov - 21:03:02 10° NW 21:08:31 43° WSW 21:13:40 10° S night (unlit)
30 Nov - 09:48:01 10° SSE 09:52:28 29° ESE 09:57:15 10° NE daylight
30 Nov - 11:29:32 10° WSW 11:34:24 35° NW 11:39:39 10° N daylight
30 Nov - 18:32:41 10° N 18:36:03 15° NE 18:39:20 10° E visible
30 Nov - 20:13:06 10° NNW 20:18:59 87° WSW 20:24:31 10° SSE night (unlit)
01 Dec - 09:00:47 10° SE 09:03:16 13° ESE 09:05:50 10° ENE daylight
01 Dec - 10:39:18 10° SW 10:44:33 70° WNW 10:50:17 10° NNE daylight
01 Dec - 12:26:07 10° WNW 12:27:49 11° NW 12:29:33 10° NNW daylight
01 Dec - 19:23:34 10° NNW 19:29:15 48° ENE 19:34:36 10° SE visible
01 Dec - 21:06:35 10° NW 21:10:56 22° WSW 21:15:05 10° SSW night (unlit)
